Voltar ao catálogo

NSS 513

INTELSAT 513

AtivoComunicaçõesGEO
NORAD 19121·PAYLOAD·🇳🇱 Netherlands

Lançado May 17, 1988 de Guiana Space Centre

Loading…

TLE

AtualizadoSource: Space-Track

Época: Sep 14, 2026, 04:44 UTC

1 19121U 88040A   26257.19779789 -.00000138  00000-0  00000-0 0  9996
2 19121  14.6401 348.1585 0011235 127.5180 245.1360  0.98572390115429

Acompanhe NSS 513 em tempo real com AllMySat

Download on the App Store